Location: Saint-Maurice-d�Ard�che
(44.5216°N, 4.4002°E)
Time: 02:31:13
(UTC+00:00)

STARLINK-1116 - Pass Details

Date: 30 March 2020
Orbit: 548 x 551 km, 53.0° (Epoch: 29 May)

Event Time Altitude Azimuth Distance (km) Brightness Sun altitude
Rises 18:44:31 0° 304° (WNW) 2,723 8.7 -7.3°
Reaches altitude 10° 18:46:46 10° 306° (NW) 1,827 7.5 -7.7°
Maximum altitude 18:50:55 70° 30° (NNE) 588 3.7 -8.4°
Enters shadow 18:54:46 12° 115° (ESE) 1,711 5.5 -9.0°
